| time (UTC) | temp F | wind direction | speed MPH | gust MPH | rain 1hr in | rain 24hr in | rain mn in | humidity % | barometer mb |
| 20260503000640 | 51 | 260 | 4.0 | 7.0 | 0.00 | 0.00 | 0.00 | 49 | 1016.3 |
| 20260503000141 | 51 | 261 | 4.0 | 10.0 | 0.00 | 0.00 | 0.00 | 50 | 1016.2 |
| 20260502235641 | 51 | 264 | 4.0 | 10.0 | 0.00 | 0.00 | 0.00 | 49 | 1016.2 |
| 20260502235141 | 51 | 241 | 2.0 | 8.0 | 0.00 | 0.00 | 0.00 | 48 | 1016.2 |
| 20260502234641 | 52 | 218 | 1.0 | 7.0 | 0.00 | 0.00 | 0.00 | 48 | 1016.0 |
| 20260502234140 | 51 | 230 | 2.0 | 7.0 | 0.00 | 0.00 | 0.00 | 49 | 1016.0 |
| 20260502233638 | 52 | 243 | 3.0 | 7.0 | 0.00 | 0.00 | 0.00 | 49 | 1016.0 |
| 20260502233143 | 52 | 212 | 2.0 | 10.0 | 0.00 | 0.00 | 0.00 | 47 | 1015.6 |
| 20260502233139 | 52 | 223 | 4.0 | 10.0 | 0.00 | 0.00 | 0.00 | 48 | 1015.8 |
| 20260502232134 | 52 | 210 | 1.0 | 4.0 | 0.00 | 0.00 | 0.00 | 48 | 1015.5 |
| 20260502231635 | 52 | 191 | 2.0 | 5.0 | 0.00 | 0.00 | 0.00 | 50 | 1015.5 |
| 20260502231137 | 52 | 262 | 2.0 | 5.0 | 0.00 | 0.00 | 0.00 | 48 | 1015.5 |
| 20260502231133 | 52 | 245 | 2.0 | 5.0 | 0.00 | 0.00 | 0.00 | 48 | 1015.4 |
| 20260502230131 | 52 | 222 | 3.0 | 10.0 | 0.00 | 0.00 | 0.00 | 47 | 1015.5 |
| 20260502225630 | 52 | 258 | 4.0 | 10.0 | 0.00 | 0.00 | 0.00 | 50 | 1015.5 |
| 20260502225124 | 52 | 211 | 3.0 | 10.0 | 0.00 | 0.00 | 0.00 | 51 | 1015.6 |
| 20260502224624 | 52 | 247 | 3.0 | 10.0 | 0.00 | 0.00 | 0.00 | 50 | 1015.5 |
| 20260502224125 | 52 | 275 | 2.0 | 9.0 | 0.00 | 0.00 | 0.00 | 51 | 1015.6 |
| 20260502223624 | 51 | 240 | 3.0 | 8.0 | 0.00 | 0.00 | 0.00 | 53 | 1015.6 |
| 20260502223129 | 52 | 195 | 2.0 | 8.0 | 0.00 | 0.00 | 0.00 | 50 | 1015.3 |
| 20260502223125 | 51 | 206 | 3.0 | 8.0 | 0.00 | 0.00 | 0.00 | 51 | 1015.5 |
| 20260502222124 | 52 | 258 | 1.0 | 4.0 | 0.00 | 0.00 | 0.00 | 52 | 1015.3 |
| 20260502221624 | 51 | 272 | 1.0 | 6.0 | 0.00 | 0.00 | 0.00 | 54 | 1015.3 |
| 20260502221124 | 50 | 270 | 2.0 | 6.0 | 0.00 | 0.00 | 0.00 | 56 | 1015.3 |
| 20260502220625 | 50 | 283 | 2.0 | 6.0 | 0.00 | 0.00 | 0.00 | 57 | 1015.3 |
| 20260502220124 | 49 | 116 | 2.0 | 7.0 | 0.00 | 0.00 | 0.00 | 58 | 1015.3 |
| 20260502215630 | 48 | 264 | 3.0 | 5.0 | 0.00 | 0.00 | 0.00 | 59 | 1015.1 |
| 20260502215625 | 49 | 261 | 2.0 | 7.0 | 0.00 | 0.00 | 0.00 | 60 | 1015.1 |
| 20260502215229 | 48 | 301 | 3.0 | 5.0 | 0.00 | 0.00 | 0.00 | 60 | 1015.1 |
| 20260502214128 | 48 | 214 | 2.0 | 4.0 | 0.00 | 0.00 | 0.00 | 61 | 1015.1 |
| 20260502214124 | 48 | 261 | 2.0 | 5.0 | 0.00 | 0.00 | 0.00 | 60 | 1015.1 |
| 20260502213122 | 48 | 275 | 1.0 | 4.0 | 0.00 | 0.00 | 0.00 | 62 | 1015.2 |
| 20260502212622 | 48 | 206 | 1.0 | 4.0 | 0.00 | 0.00 | 0.00 | 62 | 1015.2 |
| 20260502212121 | 47 | 191 | 1.0 | 6.0 | 0.00 | 0.00 | 0.00 | 62 | 1015.1 |
| 20260502211620 | 47 | 83 | 2.0 | 7.0 | 0.00 | 0.00 | 0.00 | 64 | 1015.1 |
| 20260502211616 | 47 | 215 | 2.0 | 6.0 | 0.00 | 0.00 | 0.00 | 62 | 1015.1 |
| 20260502210615 | 47 | 351 | 2.0 | 7.0 | 0.00 | 0.00 | 0.00 | 63 | 1015.0 |
| 20260502210114 | 47 | 114 | 1.0 | 4.0 | 0.00 | 0.00 | 0.00 | 64 | 1015.1 |
| 20260502205614 | 47 | 241 | 2.0 | 4.0 | 0.00 | 0.00 | 0.00 | 65 | 1015.2 |
| 20260502205114 | 46 | 81 | 2.0 | 5.0 | 0.00 | 0.00 | 0.00 | 65 | 1015.0 |
| 20260502204613 | 46 | 287 | 2.0 | 5.0 | 0.00 | 0.00 | 0.00 | 65 | 1014.9 |
| 20260502204115 | 46 | 262 | 1.0 | 5.0 | 0.00 | 0.00 | 0.00 | 66 | 1014.9 |
| 20260502203614 | 46 | 247 | 2.0 | 5.0 | 0.00 | 0.00 | 0.00 | 67 | 1014.9 |
| 20260502203115 | 46 | 249 | 2.0 | 7.0 | 0.00 | 0.00 | 0.00 | 66 | 1014.9 |
| 20260502202618 | 45 | 223 | 2.0 | 5.0 | 0.00 | 0.00 | 0.00 | 67 | 1014.9 |
| 20260502202614 | 45 | 88 | 2.0 | 7.0 | 0.00 | 0.00 | 0.00 | 67 | 1014.9 |
| 20260502201614 | 45 | 258 | 1.0 | 5.0 | 0.00 | 0.00 | 0.00 | 67 | 1014.9 |
| 20260502201114 | 45 | 328 | 1.0 | 4.0 | 0.00 | 0.00 | 0.00 | 68 | 1014.9 |
| 20260502200614 | 45 | 349 | 2.0 | 4.0 | 0.00 | 0.00 | 0.00 | 68 | 1014.9 |
| 20260502200112 | 45 | 296 | 2.0 | 5.0 | 0.00 | 0.00 | 0.00 | 69 | 1014.8 |
| 20260502195610 | 45 | 286 | 2.0 | 6.0 | 0.00 | 0.00 | 0.00 | 69 | 1014.8 |
| 20260502195109 | 45 | 295 | 2.0 | 6.0 | 0.00 | 0.00 | 0.00 | 70 | 1014.6 |
| 20260502194608 | 45 | 301 | 3.0 | 7.0 | 0.00 | 0.00 | 0.00 | 71 | 1014.6 |
| 20260502194108 | 44 | 305 | 3.0 | 7.0 | 0.00 | 0.00 | 0.00 | 73 | 1014.6 |
| 20260502193609 | 43 | 318 | 3.0 | 6.0 | 0.00 | 0.00 | 0.00 | 77 | 1014.4 |
| 20260502193605 | 44 | 314 | 3.0 | 6.0 | 0.00 | 0.00 | 0.00 | 76 | 1014.4 |
| 20260502193210 | 42 | 301 | 2.0 | 6.0 | 0.00 | 0.00 | 0.00 | 78 | 1014.3 |
| 20260502192709 | 43 | 277 | 2.0 | 6.0 | 0.00 | 0.00 | 0.00 | 78 | 1014.3 |
| 20260502191600 | 42 | 314 | 1.0 | 4.0 | 0.00 | 0.00 | 0.00 | 79 | 1014.3 |
| 20260502191100 | 42 | 299 | 2.0 | 5.0 | 0.00 | 0.00 | 0.00 | 80 | 1014.2 |
| 20260502190558 | 42 | 278 | 1.0 | 5.0 | 0.00 | 0.00 | 0.00 | 80 | 1014.2 |
| 20260502190057 | 41 | 315 | 2.0 | 5.0 | 0.00 | 0.00 | 0.00 | 81 | 1014.0 |
| 20260502185555 | 41 | 296 | 3.0 | 5.0 | 0.00 | 0.00 | 0.00 | 81 | 1014.1 |
| 20260502185054 | 41 | 303 | 2.0 | 6.0 | 0.00 | 0.00 | 0.00 | 82 | 1014.0 |
| 20260502184554 | 41 | 289 | 2.0 | 6.0 | 0.00 | 0.00 | 0.00 | 81 | 1013.9 |
| 20260502184054 | 41 | 294 | 2.0 | 6.0 | 0.00 | 0.00 | 0.00 | 81 | 1013.8 |
| 20260502183556 | 41 | 280 | 3.0 | 6.0 | 0.00 | 0.00 | 0.00 | 81 | 1013.7 |
| 20260502183552 | 41 | 246 | 3.0 | 6.0 | 0.00 | 0.00 | 0.00 | 81 | 1013.6 |
| 20260502182551 | 41 | 278 | 3.0 | 6.0 | 0.00 | 0.00 | 0.00 | 81 | 1013.7 |
| 20260502182053 | 40 | 288 | 3.0 | 6.0 | 0.00 | 0.00 | 0.00 | 82 | 1013.5 |
| 20260502181552 | 40 | 264 | 2.0 | 6.0 | 0.00 | 0.00 | 0.00 | 81 | 1013.4 |
| 20260502181056 | 40 | 302 | 2.0 | 5.0 | 0.00 | 0.00 | 0.00 | 82 | 1013.2 |
| 20260502181052 | 41 | 284 | 1.0 | 5.0 | 0.00 | 0.00 | 0.00 | 82 | 1013.3 |
| 20260502170149 | 39 | 295 | 1.0 | 3.0 | 0.00 | 0.00 | 0.00 | 87 | 1012.2 |
| 20260502163539 | 38 | 295 | 1.0 | 3.0 | 0.00 | 0.00 | 0.00 | 88 | 1012.2 |
| 20260502163038 | 38 | 295 | 2.0 | 5.0 | 0.00 | 0.00 | 0.00 | 88 | 1012.2 |
| 20260502162538 | 38 | 295 | 2.0 | 6.0 | 0.00 | 0.00 | 0.00 | 87 | 1012.1 |
| 20260502162038 | 38 | 283 | 2.0 | 6.0 | 0.00 | 0.00 | 0.00 | 87 | 1012.0 |
| 20260502161536 | 38 | 324 | 1.0 | 4.0 | 0.00 | 0.00 | 0.00 | 86 | 1011.9 |
| 20260502161035 | 38 | 322 | 1.0 | 5.0 | 0.00 | 0.00 | 0.00 | 86 | 1011.9 |
| 20260502160539 | 38 | 264 | 1.0 | 4.0 | 0.00 | 0.00 | 0.00 | 86 | 1011.7 |
| 20260502160535 | 38 | 271 | 1.0 | 5.0 | 0.00 | 0.00 | 0.00 | 86 | 1011.9 |
| 20260502152035 | 39 | 286 | 4.0 | 8.0 | 0.00 | 0.00 | 0.00 | 81 | 1011.0 |
| 20260502151536 | 39 | 262 | 4.0 | 8.0 | 0.00 | 0.00 | 0.00 | 81 | 1010.8 |
| 20260502151036 | 39 | 291 | 4.0 | 7.0 | 0.00 | 0.00 | 0.00 | 80 | 1010.8 |
| 20260502150536 | 39 | 295 | 4.0 | 7.0 | 0.00 | 0.00 | 0.00 | 79 | 1010.7 |
| 20260502130640 | 39 | 35 | 1.0 | 3.0 | 0.00 | 0.00 | 0.00 | 72 | 1008.2 |
| 20260502123533 | 39 | 131 | 1.0 | 4.0 | 0.00 | 0.00 | 0.00 | 73 | 1008.1 |
| 20260502123034 | 39 | 123 | 1.0 | 5.0 | 0.00 | 0.00 | 0.00 | 73 | 1008.2 |
| 20260502122534 | 39 | 185 | 2.0 | 5.0 | 0.00 | 0.00 | 0.00 | 73 | 1008.2 |
| 20260502122034 | 39 | 202 | 1.0 | 4.0 | 0.00 | 0.00 | 0.00 | 73 | 1008.1 |
| 20260502121534 | 39 | 263 | 0.0 | 2.0 | 0.00 | 0.00 | 0.00 | 72 | 1008.1 |
| 20260502121029 | 40 | 185 | 0.0 | 2.0 | 0.00 | 0.00 | 0.00 | 71 | 1008.0 |
| 20260502120529 | 40 | 180 | 0.0 | 2.0 | 0.00 | 0.00 | 0.00 | 71 | 1008.2 |
| 20260502115529 | 41 | 141 | 1.0 | 7.0 | 0.00 | 0.00 | 0.00 | 67 | 1008.0 |
| 20260502115029 | 42 | 134 | 2.0 | 7.0 | 0.00 | 0.00 | 0.00 | 65 | 1007.8 |
| 20260502114529 | 42 | 128 | 1.0 | 4.0 | 0.00 | 0.00 | 0.00 | 61 | 1007.6 |
| 20260502114027 | 42 | 174 | 0.0 | 2.0 | 0.00 | 0.00 | 0.00 | 60 | 1007.6 |
| 20260502113526 | 42 | 210 | 1.0 | 4.0 | 0.00 | 0.00 | 0.00 | 60 | 1007.6 |
| 20260502113021 | 42 | 210 | 2.0 | 5.0 | 0.00 | 0.00 | 0.00 | 59 | 1007.7 |
| 20260502112519 | 43 | 187 | 2.0 | 5.0 | 0.00 | 0.00 | 0.00 | 59 | 1007.6 |
| 20260502112020 | 43 | 210 | 2.0 | 7.0 | 0.00 | 0.00 | 0.00 | 58 | 1007.4 |
| 20260502111517 | 43 | 178 | 3.0 | 8.0 | 0.00 | 0.00 | 0.00 | 57 | 1007.4 |
| 20260502111017 | 43 | 158 | 5.0 | 9.0 | 0.00 | 0.00 | 0.00 | 57 | 1007.3 |
| 20260502110518 | 43 | 218 | 5.0 | 11.0 | 0.00 | 0.00 | 0.00 | 56 | 1007.2 |
| 20260502110017 | 44 | 206 | 5.0 | 12.0 | 0.00 | 0.00 | 0.00 | 55 | 1007.2 |
| 20260502105518 | 43 | 172 | 5.0 | 13.0 | 0.00 | 0.00 | 0.00 | 55 | 1007.1 |
| 20260502105015 | 43 | 181 | 7.0 | 13.0 | 0.00 | 0.00 | 0.00 | 55 | 1007.0 |
| 20260502104515 | 43 | 177 | 7.0 | 15.0 | 0.00 | 0.00 | 0.00 | 56 | 1006.9 |
| 20260502104015 | 43 | 191 | 6.0 | 15.0 | 0.00 | 0.00 | 0.00 | 56 | 1006.8 |
| 20260502103519 | 43 | 174 | 7.0 | 19.0 | 0.00 | 0.00 | 0.00 | 57 | 1006.8 |
| 20260502103515 | 43 | 203 | 6.0 | 14.0 | 0.00 | 0.00 | 0.00 | 57 | 1006.7 |
| 20260502102515 | 43 | 200 | 6.0 | 19.0 | 0.00 | 0.00 | 0.00 | 58 | 1006.7 |
| 20260502102015 | 43 | 167 | 7.0 | 18.0 | 0.00 | 0.00 | 0.00 | 58 | 1006.5 |
| 20260502101516 | 43 | 195 | 7.0 | 21.0 | 0.00 | 0.00 | 0.00 | 58 | 1006.3 |
| 20260502101015 | 42 | 189 | 7.0 | 21.0 | 0.00 | 0.00 | 0.00 | 60 | 1006.2 |
| 20260502100520 | 42 | 163 | 6.0 | 11.0 | 0.00 | 0.00 | 0.00 | 61 | 1006.2 |
| 20260502100515 | 42 | 183 | 6.0 | 13.0 | 0.00 | 0.00 | 0.00 | 61 | 1006.2 |
| 20260502091507 | 42 | 169 | 7.0 | 18.0 | 0.00 | 0.00 | 0.00 | 62 | 1005.1 |
| 20260502091008 | 42 | 135 | 7.0 | 18.0 | 0.00 | 0.00 | 0.00 | 63 | 1005.2 |
| 20260502090504 | 42 | 183 | 8.0 | 19.0 | 0.00 | 0.00 | 0.00 | 63 | 1005.0 |
| 20260502071501 | 41 | 99 | 11.0 | 23.0 | 0.00 | 0.00 | 0.00 | 71 | 1003.5 |
| 20260502071457 | 41 | 180 | 11.0 | 25.0 | 0.00 | 0.00 | 0.00 | 71 | 1003.7 |
| 20260502071101 | 41 | 146 | 12.0 | 25.0 | 0.00 | 0.00 | 0.00 | 71 | 1003.6 |
| 20260502065959 | 41 | 128 | 9.0 | 24.0 | 0.00 | 0.00 | 0.00 | 71 | 1003.3 |
| 20260502065955 | 41 | 113 | 12.0 | 24.0 | 0.00 | 0.00 | 0.00 | 71 | 1003.5 |
| 20260502064954 | 41 | 153 | 7.0 | 18.0 | 0.00 | 0.00 | 0.00 | 71 | 1003.3 |
| 20260502064449 | 41 | 143 | 7.0 | 16.0 | 0.00 | 0.00 | 0.00 | 70 | 1003.3 |
| 20260502063949 | 41 | 141 | 9.0 | 22.0 | 0.00 | 0.00 | 0.00 | 70 | 1003.1 |
| 20260502063453 | 41 | 109 | 10.0 | 24.0 | 0.00 | 0.00 | 0.00 | 70 | 1003.0 |
| 20260502063449 | 41 | 151 | 10.0 | 24.0 | 0.00 | 0.00 | 0.00 | 70 | 1003.0 |
| 20260502062449 | 41 | 132 | 10.0 | 21.0 | 0.00 | 0.00 | 0.00 | 70 | 1002.9 |
| 20260502061949 | 41 | 170 | 10.0 | 27.0 | 0.00 | 0.00 | 0.00 | 70 | 1003.0 |
| 20260502061449 | 41 | 140 | 10.0 | 27.0 | 0.00 | 0.00 | 0.00 | 70 | 1002.8 |
| 20260502060949 | 41 | 179 | 8.0 | 20.0 | 0.00 | 0.00 | 0.00 | 70 | 1002.7 |
| 20260502060445 | 41 | 167 | 8.0 | 20.0 | 0.00 | 0.00 | 0.00 | 70 | 1002.6 |
| 20260502055945 | 41 | 89 | 9.0 | 20.0 | 0.00 | 0.00 | 0.00 | 71 | 1002.5 |
| 20260502055445 | 41 | 176 | 10.0 | 21.0 | 0.00 | 0.00 | 0.00 | 71 | 1002.5 |
| 20260502054942 | 41 | 135 | 10.0 | 21.0 | 0.00 | 0.00 | 0.00 | 71 | 1002.4 |
| 20260502054441 | 41 | 133 | 9.0 | 17.0 | 0.00 | 0.00 | 0.00 | 72 | 1002.4 |
| 20260502053941 | 41 | 170 | 8.0 | 17.0 | 0.00 | 0.00 | 0.00 | 72 | 1002.2 |
| 20260502053437 | 41 | 248 | 8.0 | 23.0 | 0.00 | 0.00 | 0.00 | 72 | 1002.2 |
| 20260502052937 | 41 | 170 | 10.0 | 24.0 | 0.00 | 0.00 | 0.00 | 71 | 1002.2 |
| 20260502052435 | 41 | 98 | 10.0 | 24.0 | 0.00 | 0.00 | 0.00 | 71 | 1002.1 |
| 20260502051935 | 41 | 126 | 10.0 | 22.0 | 0.00 | 0.00 | 0.00 | 71 | 1002.0 |
| 20260502051434 | 41 | 179 | 11.0 | 22.0 | 0.00 | 0.00 | 0.00 | 71 | 1002.0 |
| 20260502050936 | 41 | 156 | 10.0 | 22.0 | 0.00 | 0.00 | 0.00 | 71 | 1002.1 |
| 20260502050436 | 41 | 116 | 9.0 | 22.0 | 0.00 | 0.00 | 0.00 | 71 | 1001.8 |
| 20260502045936 | 41 | 195 | 10.0 | 21.0 | 0.00 | 0.00 | 0.00 | 70 | 1001.9 |
| 20260502045429 | 41 | 144 | 11.0 | 24.0 | 0.00 | 0.00 | 0.00 | 69 | 1001.8 |
| 20260502044929 | 42 | 164 | 10.0 | 24.0 | 0.00 | 0.00 | 0.00 | 69 | 1001.7 |
| 20260502044434 | 42 | 152 | 12.0 | 24.0 | 0.00 | 0.00 | 0.00 | 68 | 1001.6 |
| 20260502044430 | 42 | 134 | 11.0 | 23.0 | 0.00 | 0.00 | 0.00 | 69 | 1001.7 |
| 20260502043430 | 41 | 121 | 12.0 | 24.0 | 0.00 | 0.00 | 0.00 | 69 | 1001.4 |
| 20260502042929 | 41 | 97 | 11.0 | 27.0 | 0.00 | 0.00 | 0.00 | 71 | 1001.4 |
| 20260502042429 | 41 | 205 | 11.0 | 27.0 | 0.00 | 0.00 | 0.00 | 70 | 1001.4 |
| 20260502041933 | 42 | 127 | 10.0 | 22.0 | 0.00 | 0.00 | 0.00 | 69 | 1001.2 |
| 20260502041929 | 41 | 112 | 11.0 | 24.0 | 0.00 | 0.00 | 0.00 | 70 | 1001.3 |
| 20260502040929 | 42 | 152 | 11.0 | 27.0 | 0.00 | 0.00 | 0.00 | 68 | 1001.0 |
| 20260502040426 | 42 | 158 | 11.0 | 27.0 | 0.00 | 0.00 | 0.00 | 68 | 1001.2 |
| 20260502035927 | 42 | 112 | 10.0 | 21.0 | 0.00 | 0.00 | 0.00 | 67 | 1001.1 |
| 20260502035427 | 42 | 118 | 10.0 | 23.0 | 0.00 | 0.00 | 0.00 | 67 | 1001.0 |
| 20260502034927 | 42 | 133 | 12.0 | 29.0 | 0.00 | 0.00 | 0.00 | 68 | 1000.9 |
| 20260502034427 | 42 | 172 | 12.0 | 29.0 | 0.00 | 0.00 | 0.00 | 68 | 1000.8 |
| 20260502033927 | 42 | 131 | 11.0 | 28.0 | 0.00 | 0.00 | 0.00 | 68 | 1000.8 |
| 20260502033431 | 42 | 152 | 12.0 | 28.0 | 0.00 | 0.00 | 0.00 | 69 | 1000.6 |
| 20260502033427 | 42 | 151 | 12.0 | 28.0 | 0.00 | 0.00 | 0.00 | 68 | 1000.7 |
| 20260502032426 | 42 | 164 | 12.0 | 29.0 | 0.00 | 0.00 | 0.00 | 69 | 1000.8 |
| 20260502031925 | 42 | 145 | 15.0 | 31.0 | 0.00 | 0.00 | 0.00 | 70 | 1000.8 |
| 20260502031921 | 42 | 154 | 13.0 | 29.0 | 0.00 | 0.00 | 0.00 | 69 | 1000.7 |
| 20260502031526 | 42 | 161 | 15.0 | 31.0 | 0.00 | 0.00 | 0.00 | 69 | 1000.7 |
| 20260502030421 | 42 | 136 | 13.0 | 29.0 | 0.00 | 0.00 | 0.00 | 68 | 1000.7 |
| 20260502025921 | 42 | 60 | 13.0 | 35.0 | 0.00 | 0.00 | 0.00 | 67 | 1000.8 |
| 20260502025417 | 43 | 158 | 14.0 | 35.0 | 0.00 | 0.00 | 0.00 | 66 | 1000.8 |
| 20260502024917 | 43 | 178 | 12.0 | 28.0 | 0.00 | 0.00 | 0.00 | 64 | 1000.9 |
| 20260502024419 | 43 | 156 | 11.0 | 30.0 | 0.00 | 0.00 | 0.00 | 64 | 1000.9 |
| 20260502024413 | 43 | 120 | 11.0 | 30.0 | 0.00 | 0.00 | 0.00 | 64 | 1000.9 |
| 20260502024020 | 43 | 216 | 8.0 | 29.0 | 0.00 | 0.00 | 0.00 | 63 | 1000.9 |
| 20260502022913 | 43 | 153 | 10.0 | 27.0 | 0.00 | 0.00 | 0.00 | 62 | 1001.0 |
| 20260502022412 | 43 | 151 | 12.0 | 27.0 | 0.00 | 0.00 | 0.00 | 62 | 1001.1 |
| 20260502021912 | 44 | 102 | 13.0 | 26.0 | 0.00 | 0.00 | 0.00 | 62 | 1000.9 |
| 20260502021411 | 43 | 160 | 14.0 | 26.0 | 0.00 | 0.00 | 0.00 | 62 | 1001.0 |
| 20260502021407 | 44 | 189 | 14.0 | 26.0 | 0.00 | 0.00 | 0.00 | 61 | 1001.0 |
| 20260502020407 | 43 | 114 | 14.0 | 29.0 | 0.00 | 0.00 | 0.00 | 62 | 1001.0 |
| 20260502015907 | 43 | 203 | 14.0 | 29.0 | 0.00 | 0.00 | 0.00 | 61 | 1000.8 |
| 20260502015406 | 43 | 77 | 15.0 | 30.0 | 0.00 | 0.00 | 0.00 | 62 | 1000.8 |
| 20260502014906 | 43 | 156 | 14.0 | 34.0 | 0.00 | 0.00 | 0.00 | 62 | 1000.9 |
| 20260502014902 | 43 | 140 | 16.0 | 34.0 | 0.00 | 0.00 | 0.00 | 62 | 1000.8 |
| 20260502013904 | 43 | 98 | 12.0 | 27.0 | 0.00 | 0.00 | 0.00 | 62 | 1001.0 |
| 20260502013402 | 43 | 118 | 12.0 | 31.0 | 0.00 | 0.00 | 0.00 | 62 | 1001.0 |
| 20260502012902 | 43 | 110 | 14.0 | 33.0 | 0.00 | 0.00 | 0.00 | 61 | 1000.9 |
| 20260502012403 | 43 | 137 | 16.0 | 33.0 | 0.00 | 0.00 | 0.00 | 60 | 1001.0 |
| 20260502011901 | 44 | 143 | 15.0 | 31.0 | 0.00 | 0.00 | 0.00 | 60 | 1001.0 |
| 20260502011401 | 44 | 149 | 14.0 | 31.0 | 0.00 | 0.00 | 0.00 | 59 | 1001.1 |
| 20260502010901 | 44 | 151 | 15.0 | 35.0 | 0.00 | 0.00 | 0.00 | 59 | 1001.1 |
| 20260502010401 | 44 | 138 | 13.0 | 35.0 | 0.00 | 0.00 | 0.00 | 58 | 1001.2 |
| 20260502005900 | 44 | 196 | 12.0 | 28.0 | 0.00 | 0.00 | 0.00 | 58 | 1001.2 |
| 20260502005401 | 44 | 119 | 15.0 | 34.0 | 0.00 | 0.00 | 0.00 | 57 | 1001.4 |
| 20260502004900 | 44 | 118 | 16.0 | 38.0 | 0.00 | 0.00 | 0.00 | 55 | 1001.1 |
| 20260502004856 | 44 | 97 | 16.0 | 38.0 | 0.00 | 0.00 | 0.00 | 55 | 1001.5 |
| 20260502003856 | 44 | 168 | 17.0 | 32.0 | 0.00 | 0.00 | 0.00 | 55 | 1001.5 |
| 20260502003356 | 44 | 93 | 15.0 | 32.0 | 0.00 | 0.00 | 0.00 | 55 | 1001.8 |
| 20260502002856 | 44 | 139 | 16.0 | 33.0 | 0.00 | 0.00 | 0.00 | 55 | 1001.6 |
| 20260502002356 | 44 | 167 | 17.0 | 36.0 | 0.00 | 0.00 | 0.00 | 56 | 1001.7 |
| 20260502001856 | 44 | 110 | 15.0 | 36.0 | 0.00 | 0.00 | 0.00 | 56 | 1001.7 |
| 20260502001356 | 44 | 156 | 12.0 | 30.0 | 0.00 | 0.00 | 0.00 | 55 | 1001.9 |